Location: ????????
(55.3155°N, 39.2900°E)
Time: 07:11:23
(UTC+00:00)

GP-B - Pass Details

Date: 14 April 2024
Orbit: 624 x 629 km, 89.8° (Epoch: 22 May)

Event Time Altitude Azimuth Distance (km) Brightness Sun altitude
Rises 00:34:01 0° 358° (N) 2,937 7.1 -14.0°
Reaches altitude 10° 00:36:17 10° 354° (N) 2,023 6.2 -13.7°
Maximum altitude 00:40:38 57° 277° (W) 749 3.2 -13.3°
Enters shadow 00:44:03 16° 202° (SSW) 1,657 4.7 -12.9°
